Year,Month,Day,Hour,Minute,Value (Times are PST for temperature in C)
2019,10,26,00,00,3.80
2019,10,26,00,01,3.80
2019,10,26,00,02,3.70
2019,10,26,00,03,3.70
2019,10,26,00,04,3.70
2019,10,26,00,05,3.70
2019,10,26,00,06,3.70
2019,10,26,00,07,3.70
2019,10,26,00,08,3.70
2019,10,26,00,09,3.70
2019,10,26,00,10,3.70
2019,10,26,00,11,3.70
2019,10,26,00,12,3.60
2019,10,26,00,13,3.70
2019,10,26,00,14,3.70
2019,10,26,00,15,3.70
2019,10,26,00,16,3.70
2019,10,26,00,17,3.70
2019,10,26,00,18,3.70
2019,10,26,00,19,3.70
2019,10,26,00,20,3.70
2019,10,26,00,21,3.70
2019,10,26,00,22,3.70
2019,10,26,00,23,3.70
2019,10,26,00,24,3.60
2019,10,26,00,25,3.60
2019,10,26,00,26,3.60
2019,10,26,00,27,3.60
2019,10,26,00,28,3.60
2019,10,26,00,29,3.60
2019,10,26,00,30,3.60
2019,10,26,00,31,3.60
2019,10,26,00,32,3.50
2019,10,26,00,33,3.50
2019,10,26,00,34,3.50
2019,10,26,00,35,3.50
2019,10,26,00,36,3.50
2019,10,26,00,37,3.50
2019,10,26,00,38,3.40
2019,10,26,00,39,3.40
2019,10,26,00,40,3.40
2019,10,26,00,41,3.30
2019,10,26,00,42,3.30
2019,10,26,00,43,3.30
2019,10,26,00,44,3.30
2019,10,26,00,45,3.30
2019,10,26,00,46,3.30
2019,10,26,00,47,3.30
2019,10,26,00,48,3.30
2019,10,26,00,49,3.30
2019,10,26,00,50,3.20
2019,10,26,00,51,3.20
2019,10,26,00,52,3.20
2019,10,26,00,53,3.20
2019,10,26,00,54,3.20
2019,10,26,00,55,3.20
2019,10,26,00,56,3.20
2019,10,26,00,57,3.20
2019,10,26,00,58,3.20
2019,10,26,00,59,3.20
2019,10,26,01,00,3.20
2019,10,26,01,01,3.20
2019,10,26,01,02,3.20
2019,10,26,01,03,3.20
2019,10,26,01,04,3.20
2019,10,26,01,05,3.20
2019,10,26,01,06,3.20
2019,10,26,01,07,3.10
2019,10,26,01,08,3.10
2019,10,26,01,09,3.10
2019,10,26,01,10,3.10
2019,10,26,01,11,3.10
2019,10,26,01,12,3.10
2019,10,26,01,13,3.10
2019,10,26,01,14,3.10
2019,10,26,01,15,3.10
2019,10,26,01,16,3.10
2019,10,26,01,17,3.10
2019,10,26,01,18,3.10
2019,10,26,01,19,3.10
2019,10,26,01,20,3.10
2019,10,26,01,21,3.10
2019,10,26,01,22,3.10
2019,10,26,01,23,3.10
2019,10,26,01,24,3.00
2019,10,26,01,25,3.00
2019,10,26,01,26,3.00
2019,10,26,01,27,2.90
2019,10,26,01,28,2.90
2019,10,26,01,29,2.90
2019,10,26,01,30,2.90
2019,10,26,01,31,2.90
2019,10,26,01,32,2.90
2019,10,26,01,33,2.90
2019,10,26,01,34,2.80
2019,10,26,01,35,2.80
2019,10,26,01,36,2.80
2019,10,26,01,37,2.80
2019,10,26,01,38,2.80
2019,10,26,01,39,2.80
2019,10,26,01,40,2.80
2019,10,26,01,41,2.80
2019,10,26,01,42,2.70
2019,10,26,01,43,2.80
2019,10,26,01,44,2.70
2019,10,26,01,45,2.80
2019,10,26,01,46,2.80
2019,10,26,01,47,2.80
2019,10,26,01,48,2.80
2019,10,26,01,49,2.70
2019,10,26,01,50,2.70
2019,10,26,01,51,2.70
2019,10,26,01,52,2.60
2019,10,26,01,53,2.60
2019,10,26,01,54,2.60
2019,10,26,01,55,2.60
2019,10,26,01,56,2.60
2019,10,26,01,57,2.60
2019,10,26,01,58,2.60
2019,10,26,01,59,2.60
2019,10,26,02,00,2.60
2019,10,26,02,01,2.50
2019,10,26,02,02,2.50
2019,10,26,02,03,2.50
2019,10,26,02,04,2.40
2019,10,26,02,05,2.40
2019,10,26,02,06,2.40
2019,10,26,02,07,2.40
2019,10,26,02,08,2.30
2019,10,26,02,09,2.30
2019,10,26,02,10,2.30
2019,10,26,02,11,2.30
2019,10,26,02,12,2.30
2019,10,26,02,13,2.30
2019,10,26,02,14,2.20
2019,10,26,02,15,2.20
2019,10,26,02,16,2.20
2019,10,26,02,17,2.20
2019,10,26,02,18,2.20
2019,10,26,02,19,2.20
2019,10,26,02,20,2.20
2019,10,26,02,21,2.20
2019,10,26,02,22,2.20
2019,10,26,02,23,2.20
2019,10,26,02,24,2.10
2019,10,26,02,25,2.10
2019,10,26,02,26,2.10
2019,10,26,02,27,2.10
2019,10,26,02,28,2.10
2019,10,26,02,29,2.10
2019,10,26,02,30,2.10
2019,10,26,02,31,2.10
2019,10,26,02,32,2.10
2019,10,26,02,33,2.10
2019,10,26,02,34,2.10
2019,10,26,02,35,2.10
2019,10,26,02,36,2.10
2019,10,26,02,37,2.10
2019,10,26,02,38,2.10
2019,10,26,02,39,2.10
2019,10,26,02,40,2.10
2019,10,26,02,41,2.10
2019,10,26,02,42,2.10
2019,10,26,02,43,2.00
2019,10,26,02,44,2.00
2019,10,26,02,45,2.00
2019,10,26,02,46,1.90
2019,10,26,02,47,1.90
2019,10,26,02,48,1.90
2019,10,26,02,49,1.90
2019,10,26,02,50,1.90
2019,10,26,02,51,1.90
2019,10,26,02,52,1.90
2019,10,26,02,53,1.90
2019,10,26,02,54,1.90
2019,10,26,02,55,1.90
2019,10,26,02,56,1.90
2019,10,26,02,57,1.90
2019,10,26,02,58,1.90
2019,10,26,02,59,1.90
2019,10,26,03,00,1.90
2019,10,26,03,01,1.90
2019,10,26,03,02,1.80
2019,10,26,03,03,1.80
2019,10,26,03,04,1.80
2019,10,26,03,05,1.80
2019,10,26,03,06,1.80
2019,10,26,03,07,1.80
2019,10,26,03,08,1.80
2019,10,26,03,09,1.80
2019,10,26,03,10,1.80
2019,10,26,03,11,1.80
2019,10,26,03,12,1.80
2019,10,26,03,13,1.80
2019,10,26,03,14,1.80
2019,10,26,03,15,1.80
2019,10,26,03,16,1.80
2019,10,26,03,17,1.80
2019,10,26,03,18,1.80
2019,10,26,03,19,1.80
2019,10,26,03,20,1.80
2019,10,26,03,21,1.80
2019,10,26,03,22,1.80
2019,10,26,03,23,1.70
2019,10,26,03,24,1.70
2019,10,26,03,25,1.70
2019,10,26,03,26,1.70
2019,10,26,03,27,1.70
2019,10,26,03,28,1.70
2019,10,26,03,29,1.70
2019,10,26,03,30,1.70
2019,10,26,03,31,1.70
2019,10,26,03,32,1.60
2019,10,26,03,33,1.60
2019,10,26,03,34,1.60
2019,10,26,03,35,1.50
2019,10,26,03,36,1.50
2019,10,26,03,37,1.50
2019,10,26,03,38,1.50
2019,10,26,03,39,1.60
2019,10,26,03,40,1.60
2019,10,26,03,41,1.60
2019,10,26,03,42,1.60
2019,10,26,03,43,1.60
2019,10,26,03,44,1.60
2019,10,26,03,45,1.60
2019,10,26,03,46,1.50
2019,10,26,03,47,1.50
2019,10,26,03,48,1.50
2019,10,26,03,49,1.50
2019,10,26,03,50,1.40
2019,10,26,03,51,1.40
2019,10,26,03,52,1.40
2019,10,26,03,53,1.40
2019,10,26,03,54,1.40
2019,10,26,03,55,1.40
2019,10,26,03,56,1.40
2019,10,26,03,57,1.40
2019,10,26,03,58,1.40
2019,10,26,03,59,1.40
2019,10,26,04,00,1.40
2019,10,26,04,01,1.40
2019,10,26,04,02,1.30
2019,10,26,04,03,1.30
2019,10,26,04,04,1.30
2019,10,26,04,05,1.40
2019,10,26,04,06,1.40
2019,10,26,04,07,1.40
2019,10,26,04,08,1.40
2019,10,26,04,09,1.40
2019,10,26,04,10,1.40
2019,10,26,04,11,1.40
2019,10,26,04,12,1.40
2019,10,26,04,13,1.40
2019,10,26,04,14,1.30
2019,10,26,04,15,1.30
2019,10,26,04,16,1.30
2019,10,26,04,17,1.30
2019,10,26,04,18,1.30
2019,10,26,04,19,1.30
2019,10,26,04,20,1.20
2019,10,26,04,21,1.20
2019,10,26,04,22,1.20
2019,10,26,04,23,1.20
2019,10,26,04,24,1.20
2019,10,26,04,25,1.20
2019,10,26,04,26,1.20
2019,10,26,04,27,1.20
2019,10,26,04,28,1.20
2019,10,26,04,29,1.10
2019,10,26,04,30,1.10
2019,10,26,04,31,1.10
2019,10,26,04,32,1.10
2019,10,26,04,33,1.10
2019,10,26,04,34,1.10
2019,10,26,04,35,1.20
2019,10,26,04,36,1.20
2019,10,26,04,37,1.20
2019,10,26,04,38,1.20
2019,10,26,04,39,1.10
2019,10,26,04,40,1.10
2019,10,26,04,41,1.10
2019,10,26,04,42,1.10
2019,10,26,04,43,1.00
2019,10,26,04,44,1.00
2019,10,26,04,45,0.90
2019,10,26,04,46,0.90
2019,10,26,04,47,0.90
2019,10,26,04,48,0.90
2019,10,26,04,49,0.90
2019,10,26,04,50,0.90
2019,10,26,04,51,0.80
2019,10,26,04,52,0.80
2019,10,26,04,53,0.90
2019,10,26,04,54,0.90
2019,10,26,04,55,0.90
2019,10,26,04,56,1.00
2019,10,26,04,57,1.00
2019,10,26,04,58,1.00
2019,10,26,04,59,1.10
2019,10,26,05,00,1.10
2019,10,26,05,01,1.10
2019,10,26,05,02,1.10
2019,10,26,05,03,1.10
2019,10,26,05,04,1.10
2019,10,26,05,05,1.10
2019,10,26,05,06,1.10
2019,10,26,05,07,1.10
2019,10,26,05,08,1.10
2019,10,26,05,09,1.00
2019,10,26,05,10,1.00
2019,10,26,05,11,1.00
2019,10,26,05,12,1.00
2019,10,26,05,13,1.00
2019,10,26,05,14,1.10
2019,10,26,05,15,1.00
2019,10,26,05,16,1.00
2019,10,26,05,17,1.00
2019,10,26,05,18,0.90
2019,10,26,05,19,0.90
2019,10,26,05,20,0.90
2019,10,26,05,21,0.90
2019,10,26,05,22,0.80
2019,10,26,05,23,0.80
2019,10,26,05,24,0.80
2019,10,26,05,25,0.80
2019,10,26,05,26,0.70
2019,10,26,05,27,0.80
2019,10,26,05,28,0.80
2019,10,26,05,29,0.80
2019,10,26,05,30,0.80
2019,10,26,05,31,0.80
2019,10,26,05,32,0.70
2019,10,26,05,33,0.70
2019,10,26,05,34,0.70
2019,10,26,05,35,0.70
2019,10,26,05,36,0.70
2019,10,26,05,37,0.70
2019,10,26,05,38,0.70
2019,10,26,05,39,0.70
2019,10,26,05,40,0.70
2019,10,26,05,41,0.60
2019,10,26,05,42,0.60
2019,10,26,05,43,0.60
2019,10,26,05,44,0.60
2019,10,26,05,45,0.60
2019,10,26,05,46,0.60
2019,10,26,05,47,0.60
2019,10,26,05,48,0.50
2019,10,26,05,49,0.50
2019,10,26,05,50,0.50
2019,10,26,05,51,0.50
2019,10,26,05,52,0.60
2019,10,26,05,53,0.50
2019,10,26,05,54,0.50
2019,10,26,05,55,0.60
2019,10,26,05,56,0.60
2019,10,26,05,57,0.60
2019,10,26,05,58,0.60
2019,10,26,05,59,0.60
2019,10,26,06,00,0.60
2019,10,26,06,01,0.60
2019,10,26,06,02,0.60
2019,10,26,06,03,0.60
2019,10,26,06,04,0.60
2019,10,26,06,05,0.60
2019,10,26,06,06,0.60
2019,10,26,06,07,0.60
2019,10,26,06,08,0.60
2019,10,26,06,09,0.60
2019,10,26,06,10,0.60
2019,10,26,06,11,0.70
2019,10,26,06,12,0.70
2019,10,26,06,13,0.70
2019,10,26,06,14,0.70
2019,10,26,06,15,0.60
2019,10,26,06,16,0.60
2019,10,26,06,17,0.60
2019,10,26,06,18,0.60
2019,10,26,06,19,0.60
2019,10,26,06,20,0.50
2019,10,26,06,21,0.50
2019,10,26,06,22,0.50
2019,10,26,06,23,0.50
2019,10,26,06,24,0.40
2019,10,26,06,25,0.40
2019,10,26,06,26,0.40
2019,10,26,06,27,0.40
2019,10,26,06,28,0.40
2019,10,26,06,29,0.40
2019,10,26,06,30,0.40
2019,10,26,06,31,0.40
2019,10,26,06,32,0.40
2019,10,26,06,33,0.40
2019,10,26,06,34,0.40
2019,10,26,06,35,0.40
2019,10,26,06,36,0.40
2019,10,26,06,37,0.30
2019,10,26,06,38,0.30
2019,10,26,06,39,0.30
2019,10,26,06,40,0.30
2019,10,26,06,41,0.30
2019,10,26,06,42,0.30
2019,10,26,06,43,0.30
2019,10,26,06,44,0.30
2019,10,26,06,45,0.30
2019,10,26,06,46,0.30
2019,10,26,06,47,0.30
2019,10,26,06,48,0.30
2019,10,26,06,49,0.30
2019,10,26,06,50,0.30
2019,10,26,06,51,0.30
2019,10,26,06,52,0.30
2019,10,26,06,53,0.30
2019,10,26,06,54,0.30
2019,10,26,06,55,0.30
2019,10,26,06,56,0.20
2019,10,26,06,57,0.30
2019,10,26,06,58,0.30
2019,10,26,06,59,0.30
2019,10,26,07,00,0.30
2019,10,26,07,01,0.30
2019,10,26,07,02,0.30
2019,10,26,07,03,0.40
2019,10,26,07,04,0.40
2019,10,26,07,05,0.40
2019,10,26,07,06,0.40
2019,10,26,07,07,0.50
2019,10,26,07,08,0.50
2019,10,26,07,09,0.50
2019,10,26,07,10,0.50
2019,10,26,07,11,0.50
2019,10,26,07,12,0.60
2019,10,26,07,13,0.60
2019,10,26,07,14,0.60
2019,10,26,07,15,0.60
2019,10,26,07,16,0.60
2019,10,26,07,17,0.60
2019,10,26,07,18,0.60
2019,10,26,07,19,0.60
2019,10,26,07,20,0.60
2019,10,26,07,21,0.60
2019,10,26,07,22,0.60
2019,10,26,07,23,0.60
2019,10,26,07,24,0.60
2019,10,26,07,25,0.60
2019,10,26,07,26,0.60
2019,10,26,07,27,0.60
2019,10,26,07,28,0.60
2019,10,26,07,29,0.60
2019,10,26,07,30,0.60
2019,10,26,07,31,0.60
2019,10,26,07,32,0.60
2019,10,26,07,33,0.60
2019,10,26,07,34,0.60
2019,10,26,07,35,0.60
2019,10,26,07,36,0.60
2019,10,26,07,37,0.60
2019,10,26,07,38,0.60
2019,10,26,07,39,0.60
2019,10,26,07,40,0.60
2019,10,26,07,41,0.60
2019,10,26,07,42,0.60
2019,10,26,07,43,0.60
2019,10,26,07,44,0.60
2019,10,26,07,45,0.60
2019,10,26,07,46,0.60
2019,10,26,07,47,0.60
2019,10,26,07,48,0.50
2019,10,26,07,49,0.50
2019,10,26,07,50,0.50
2019,10,26,07,51,0.40
2019,10,26,07,52,0.40
2019,10,26,07,53,0.40
2019,10,26,07,54,0.40
2019,10,26,07,55,0.40
2019,10,26,07,56,0.30
2019,10,26,07,57,0.30
2019,10,26,07,58,0.30
2019,10,26,07,59,0.30
2019,10,26,08,00,0.30
2019,10,26,08,01,0.30
2019,10,26,08,02,0.30
2019,10,26,08,03,0.30
2019,10,26,08,04,0.30
2019,10,26,08,05,0.20
2019,10,26,08,06,0.20
2019,10,26,08,07,0.20
2019,10,26,08,08,0.10
2019,10,26,08,09,0.10
2019,10,26,08,10,0.10
2019,10,26,08,11,0.10
2019,10,26,08,12,0.10
2019,10,26,08,13,0.10
2019,10,26,08,14,0.10
2019,10,26,08,15,0.10
2019,10,26,08,16,0.10
2019,10,26,08,17,0.10
2019,10,26,08,18,0.10
2019,10,26,08,19,0.10
2019,10,26,08,20,0.10
2019,10,26,08,21,0.10
2019,10,26,08,22,0.10
2019,10,26,08,23,0.10
2019,10,26,08,24,0.10
2019,10,26,08,25,0.10
2019,10,26,08,26,0.10
2019,10,26,08,27,0.10
2019,10,26,08,28,0.10
2019,10,26,08,29,0.10
2019,10,26,08,30,0.10
2019,10,26,08,31,0.10
2019,10,26,08,32,0.10
2019,10,26,08,33,0.10
2019,10,26,08,34,0.20
2019,10,26,08,35,0.20
2019,10,26,08,36,0.20
2019,10,26,08,37,0.20
2019,10,26,08,38,0.20
2019,10,26,08,39,0.20
2019,10,26,08,40,0.20
2019,10,26,08,41,0.20
2019,10,26,08,42,0.20
2019,10,26,08,43,0.20
2019,10,26,08,44,0.20
2019,10,26,08,45,0.20
2019,10,26,08,46,0.20
2019,10,26,08,47,0.20
2019,10,26,08,48,0.20
2019,10,26,08,49,0.20
2019,10,26,08,50,0.20
2019,10,26,08,51,0.30
2019,10,26,08,52,0.30
2019,10,26,08,53,0.30
2019,10,26,08,54,0.30
2019,10,26,08,55,0.30
2019,10,26,08,56,0.30
2019,10,26,08,57,0.30
2019,10,26,08,58,0.30
2019,10,26,08,59,0.30
2019,10,26,09,00,0.30
2019,10,26,09,01,0.30
2019,10,26,09,02,0.30
2019,10,26,09,03,0.30
2019,10,26,09,04,0.30
2019,10,26,09,05,0.30
2019,10,26,09,06,0.40
2019,10,26,09,07,0.40
2019,10,26,09,08,0.40
2019,10,26,09,09,0.50
2019,10,26,09,10,0.50
2019,10,26,09,11,0.50
2019,10,26,09,12,0.50
2019,10,26,09,13,0.60
2019,10,26,09,14,0.60
2019,10,26,09,15,0.60
2019,10,26,09,16,0.60
2019,10,26,09,17,0.60
2019,10,26,09,18,0.60
2019,10,26,09,19,0.60
2019,10,26,09,20,0.70
2019,10,26,09,21,0.70
2019,10,26,09,22,0.70
2019,10,26,09,23,0.70
2019,10,26,09,24,0.70
2019,10,26,09,25,0.70
2019,10,26,09,26,0.70
2019,10,26,09,27,0.70
2019,10,26,09,28,0.70
2019,10,26,09,29,0.70
2019,10,26,09,30,0.70
2019,10,26,09,31,0.70
2019,10,26,09,32,0.80
2019,10,26,09,33,0.80
2019,10,26,09,34,0.80
2019,10,26,09,35,0.80
2019,10,26,09,36,0.90
2019,10,26,09,37,0.90
2019,10,26,09,38,1.00
2019,10,26,09,39,1.00
2019,10,26,09,40,1.10
2019,10,26,09,41,1.10
2019,10,26,09,42,1.10
2019,10,26,09,43,1.20
2019,10,26,09,44,1.20
2019,10,26,09,45,1.20
2019,10,26,09,46,1.30
2019,10,26,09,47,1.30
2019,10,26,09,48,1.30
2019,10,26,09,49,1.40
2019,10,26,09,50,1.40
2019,10,26,09,51,1.40
2019,10,26,09,52,1.50
2019,10,26,09,53,1.50
2019,10,26,09,54,1.50
2019,10,26,09,55,1.50
2019,10,26,09,56,1.60
2019,10,26,09,57,1.60
2019,10,26,09,58,1.60
2019,10,26,09,59,1.70
2019,10,26,10,00,1.70
2019,10,26,10,01,1.70
2019,10,26,10,02,1.70
2019,10,26,10,03,1.80
2019,10,26,10,04,1.80
2019,10,26,10,05,1.80
2019,10,26,10,06,1.90
2019,10,26,10,07,1.90
2019,10,26,10,08,1.90
2019,10,26,10,09,1.90
2019,10,26,10,10,2.00
2019,10,26,10,11,2.00
2019,10,26,10,12,2.00
2019,10,26,10,13,2.10
2019,10,26,10,14,2.10
2019,10,26,10,15,2.10
2019,10,26,10,16,2.20
2019,10,26,10,17,2.20
2019,10,26,10,18,2.20
2019,10,26,10,19,2.30
2019,10,26,10,20,2.30
2019,10,26,10,21,2.40
2019,10,26,10,22,2.40
2019,10,26,10,23,2.50
2019,10,26,10,24,2.50
2019,10,26,10,25,2.50
2019,10,26,10,26,2.60
2019,10,26,10,27,2.60
2019,10,26,10,28,2.60
2019,10,26,10,29,2.70
2019,10,26,10,30,2.70
2019,10,26,10,31,2.80
2019,10,26,10,32,2.80
2019,10,26,10,33,2.90
2019,10,26,10,34,2.90
2019,10,26,10,35,2.90
2019,10,26,10,36,3.00
2019,10,26,10,37,3.00
2019,10,26,10,38,3.00
2019,10,26,10,39,3.10
2019,10,26,10,40,3.10
2019,10,26,10,41,3.10
2019,10,26,10,42,3.20
2019,10,26,10,43,3.20
2019,10,26,10,44,3.20
2019,10,26,10,45,3.30
2019,10,26,10,46,3.30
2019,10,26,10,47,3.40
2019,10,26,10,48,3.40
2019,10,26,10,49,3.40
2019,10,26,10,50,3.40
2019,10,26,10,51,3.40
2019,10,26,10,52,3.50
2019,10,26,10,53,3.50
2019,10,26,10,54,3.50
2019,10,26,10,55,3.60
2019,10,26,10,56,3.60
2019,10,26,10,57,3.60
2019,10,26,10,58,3.60
2019,10,26,10,59,3.70
2019,10,26,11,00,3.80
2019,10,26,11,01,3.90
2019,10,26,11,02,4.00
2019,10,26,11,03,4.00
2019,10,26,11,04,4.10
2019,10,26,11,05,4.10
2019,10,26,11,06,4.20
2019,10,26,11,07,4.30
2019,10,26,11,08,4.40
2019,10,26,11,09,4.50
2019,10,26,11,10,4.60
2019,10,26,11,11,4.60
2019,10,26,11,12,4.70
2019,10,26,11,13,4.80
2019,10,26,11,14,4.80
2019,10,26,11,15,4.80
2019,10,26,11,16,4.90
2019,10,26,11,17,4.90
2019,10,26,11,18,5.00
2019,10,26,11,19,5.00
2019,10,26,11,20,5.00
2019,10,26,11,21,5.10
2019,10,26,11,22,5.10
2019,10,26,11,23,5.10
2019,10,26,11,24,5.20
2019,10,26,11,25,5.20
2019,10,26,11,26,5.20
2019,10,26,11,27,5.30
2019,10,26,11,28,5.30
2019,10,26,11,29,5.40
2019,10,26,11,30,5.40
2019,10,26,11,31,5.40
2019,10,26,11,32,5.40
2019,10,26,11,33,5.40
2019,10,26,11,34,5.40
2019,10,26,11,35,5.40
2019,10,26,11,36,5.50
2019,10,26,11,37,5.50
2019,10,26,11,38,5.50
2019,10,26,11,39,5.50
2019,10,26,11,40,5.50
2019,10,26,11,41,5.60
2019,10,26,11,42,5.60
2019,10,26,11,43,5.70
2019,10,26,11,44,5.80
2019,10,26,11,45,5.90
2019,10,26,11,46,6.00
2019,10,26,11,47,6.10
2019,10,26,11,48,6.20
2019,10,26,11,49,6.30
2019,10,26,11,50,6.30
2019,10,26,11,51,6.40
2019,10,26,11,52,6.40
2019,10,26,11,53,6.50
2019,10,26,11,54,6.50
2019,10,26,11,55,6.60
2019,10,26,11,56,6.70
2019,10,26,11,57,6.70
2019,10,26,11,58,6.70
2019,10,26,11,59,6.80
2019,10,26,12,00,6.80
2019,10,26,12,01,6.80
2019,10,26,12,02,6.80
2019,10,26,12,03,6.90
2019,10,26,12,04,7.00
2019,10,26,12,05,7.10
2019,10,26,12,06,7.20
2019,10,26,12,07,7.30
2019,10,26,12,08,7.30
2019,10,26,12,09,7.40
2019,10,26,12,10,7.50
2019,10,26,12,11,7.50
2019,10,26,12,12,7.60
2019,10,26,12,13,7.60
2019,10,26,12,14,7.70
2019,10,26,12,15,7.80
2019,10,26,12,16,7.90
2019,10,26,12,17,8.00
2019,10,26,12,18,8.20
2019,10,26,12,19,8.30
2019,10,26,12,20,8.40
2019,10,26,12,21,8.50
2019,10,26,12,22,8.60
2019,10,26,12,23,8.70
2019,10,26,12,24,8.90
2019,10,26,12,25,9.00
2019,10,26,12,26,9.10
2019,10,26,12,27,9.20
2019,10,26,12,28,9.40
2019,10,26,12,29,9.50
2019,10,26,12,30,9.60
2019,10,26,12,31,9.60
2019,10,26,12,32,9.60
2019,10,26,12,33,9.70
2019,10,26,12,34,9.80
2019,10,26,12,35,9.80
2019,10,26,12,36,9.90
2019,10,26,12,37,10.00
2019,10,26,12,38,10.10
2019,10,26,12,39,10.20
2019,10,26,12,40,10.20
2019,10,26,12,41,10.30
2019,10,26,12,42,10.40
2019,10,26,12,43,10.50
2019,10,26,12,44,10.60
2019,10,26,12,45,10.60
2019,10,26,12,46,10.70
2019,10,26,12,47,10.70
2019,10,26,12,48,10.70
2019,10,26,12,49,10.60
2019,10,26,12,50,10.60
2019,10,26,12,51,10.60
2019,10,26,12,52,10.70
2019,10,26,12,53,10.70
2019,10,26,12,54,10.80
2019,10,26,12,55,10.80
2019,10,26,12,56,10.80
2019,10,26,12,57,10.90
2019,10,26,12,58,11.00
2019,10,26,12,59,11.10
2019,10,26,13,00,11.20
2019,10,26,13,01,11.30
2019,10,26,13,02,11.30
2019,10,26,13,03,11.30
2019,10,26,13,04,11.40
2019,10,26,13,05,11.40
2019,10,26,13,06,11.50
2019,10,26,13,07,11.60
2019,10,26,13,08,11.60
2019,10,26,13,09,11.70
2019,10,26,13,10,11.70
2019,10,26,13,11,11.70
2019,10,26,13,12,11.80
2019,10,26,13,13,11.80
2019,10,26,13,14,11.80
2019,10,26,13,15,11.80
2019,10,26,13,16,11.90
2019,10,26,13,17,12.00
2019,10,26,13,18,12.10
2019,10,26,13,19,12.10
2019,10,26,13,20,12.20
2019,10,26,13,21,12.20
2019,10,26,13,22,12.30
2019,10,26,13,23,12.30
2019,10,26,13,24,12.40
2019,10,26,13,25,12.50
2019,10,26,13,26,12.60
2019,10,26,13,27,12.60
2019,10,26,13,28,12.70
2019,10,26,13,29,12.80
2019,10,26,13,30,12.80
2019,10,26,13,31,12.90
2019,10,26,13,32,13.00
2019,10,26,13,33,13.10
2019,10,26,13,34,13.10
2019,10,26,13,35,13.20
2019,10,26,13,36,13.20
2019,10,26,13,37,13.30
2019,10,26,13,38,13.30
2019,10,26,13,39,13.40
2019,10,26,13,40,13.50
2019,10,26,13,41,13.60
2019,10,26,13,42,13.60
2019,10,26,13,43,13.70
2019,10,26,13,44,13.80
2019,10,26,13,45,13.90
2019,10,26,13,46,13.90
2019,10,26,13,47,14.00
2019,10,26,13,48,14.00
2019,10,26,13,49,14.10
2019,10,26,13,50,14.20
2019,10,26,13,51,14.20
2019,10,26,13,52,14.30
2019,10,26,13,53,14.30
2019,10,26,13,54,14.30
2019,10,26,13,55,14.40
2019,10,26,13,56,14.40
2019,10,26,13,57,14.50
2019,10,26,13,58,14.50
2019,10,26,13,59,14.60
2019,10,26,14,00,14.60
2019,10,26,14,01,14.70
2019,10,26,14,02,14.70
2019,10,26,14,03,14.70
2019,10,26,14,04,14.70
2019,10,26,14,05,14.70
2019,10,26,14,06,14.70
2019,10,26,14,07,14.60
2019,10,26,14,08,14.60
2019,10,26,14,09,14.60
2019,10,26,14,10,14.60
2019,10,26,14,11,14.70
2019,10,26,14,12,14.70
2019,10,26,14,13,14.70
2019,10,26,14,14,14.70
2019,10,26,14,15,14.70
2019,10,26,14,16,14.70
2019,10,26,14,17,14.70
2019,10,26,14,18,14.80
2019,10,26,14,19,14.80
2019,10,26,14,20,14.80
2019,10,26,14,21,14.80
2019,10,26,14,22,14.80
2019,10,26,14,23,14.80
2019,10,26,14,24,14.80
2019,10,26,14,25,14.90
2019,10,26,14,26,14.90
2019,10,26,14,27,14.90
2019,10,26,14,28,14.90
2019,10,26,14,29,14.90
2019,10,26,14,30,14.90
2019,10,26,14,31,14.90
2019,10,26,14,32,14.90
2019,10,26,14,33,14.80
2019,10,26,14,34,14.80
2019,10,26,14,35,14.80
2019,10,26,14,36,14.80
2019,10,26,14,37,14.80
2019,10,26,14,38,14.90
2019,10,26,14,39,14.90
2019,10,26,14,40,14.90
2019,10,26,14,41,14.90
2019,10,26,14,42,14.80
2019,10,26,14,43,14.80
2019,10,26,14,44,14.80
2019,10,26,14,45,14.80
2019,10,26,14,46,14.80
2019,10,26,14,47,14.80
2019,10,26,14,48,14.80
2019,10,26,14,49,14.80
2019,10,26,14,50,14.80
2019,10,26,14,51,14.80
2019,10,26,14,52,14.80
2019,10,26,14,53,14.80
2019,10,26,14,54,14.80
2019,10,26,14,55,14.80
2019,10,26,14,56,14.80
2019,10,26,14,57,14.80
2019,10,26,14,58,14.80
2019,10,26,14,59,14.80
2019,10,26,15,00,14.80
2019,10,26,15,01,14.90
2019,10,26,15,02,14.90
2019,10,26,15,03,14.90
2019,10,26,15,04,14.90
2019,10,26,15,05,15.00
2019,10,26,15,06,15.00
2019,10,26,15,07,15.10
2019,10,26,15,08,15.10
2019,10,26,15,09,15.10
2019,10,26,15,10,15.20
2019,10,26,15,11,15.20
2019,10,26,15,12,15.20
2019,10,26,15,13,15.10
2019,10,26,15,14,15.10
2019,10,26,15,15,15.10
2019,10,26,15,16,15.00
2019,10,26,15,17,15.00
2019,10,26,15,18,15.00
2019,10,26,15,19,15.00
2019,10,26,15,20,15.00
2019,10,26,15,21,14.90
2019,10,26,15,22,15.00
2019,10,26,15,23,15.00
2019,10,26,15,24,15.00
2019,10,26,15,25,15.00
2019,10,26,15,26,15.00
2019,10,26,15,27,15.00
2019,10,26,15,28,15.00
2019,10,26,15,29,15.00
2019,10,26,15,30,15.10
2019,10,26,15,31,15.10
2019,10,26,15,32,15.10
2019,10,26,15,33,15.10
2019,10,26,15,34,15.10
2019,10,26,15,35,15.10
2019,10,26,15,36,15.10
2019,10,26,15,37,15.10
2019,10,26,15,38,15.10
2019,10,26,15,39,15.10
2019,10,26,15,40,15.10
2019,10,26,15,41,15.10
2019,10,26,15,42,15.20
2019,10,26,15,43,15.20
2019,10,26,15,44,15.20
2019,10,26,15,45,15.20
2019,10,26,15,46,15.20
2019,10,26,15,47,15.20
2019,10,26,15,48,15.20
2019,10,26,15,49,15.20
2019,10,26,15,50,15.20
2019,10,26,15,51,15.20
2019,10,26,15,52,15.20
2019,10,26,15,53,15.20
2019,10,26,15,54,15.20
2019,10,26,15,55,15.20
2019,10,26,15,56,15.20
2019,10,26,15,57,15.20
2019,10,26,15,58,15.20
2019,10,26,15,59,15.20
2019,10,26,16,00,15.20
2019,10,26,16,01,15.20
2019,10,26,16,02,15.20
2019,10,26,16,03,15.20
2019,10,26,16,04,15.20
2019,10,26,16,05,15.20
2019,10,26,16,06,15.20
2019,10,26,16,07,15.10
2019,10,26,16,08,15.10
2019,10,26,16,09,15.00
2019,10,26,16,10,15.00
2019,10,26,16,11,15.00
2019,10,26,16,12,15.00
2019,10,26,16,13,15.10
2019,10,26,16,14,15.10
2019,10,26,16,15,15.10
2019,10,26,16,16,15.10
2019,10,26,16,17,15.00
2019,10,26,16,18,15.00
2019,10,26,16,19,15.00
2019,10,26,16,20,15.00
2019,10,26,16,21,14.90
2019,10,26,16,22,14.90
2019,10,26,16,23,14.90
2019,10,26,16,24,14.90
2019,10,26,16,25,14.90
2019,10,26,16,26,14.90
2019,10,26,16,27,14.90
2019,10,26,16,28,14.80
2019,10,26,16,29,14.80
2019,10,26,16,30,14.80
2019,10,26,16,31,14.80
2019,10,26,16,32,14.90
2019,10,26,16,33,14.90
2019,10,26,16,34,14.90
2019,10,26,16,35,14.90
2019,10,26,16,36,14.80
2019,10,26,16,37,14.80
2019,10,26,16,38,14.80
2019,10,26,16,39,14.80
2019,10,26,16,40,14.80
2019,10,26,16,41,14.80
2019,10,26,16,42,14.80
2019,10,26,16,43,14.80
2019,10,26,16,44,14.80
2019,10,26,16,45,14.80
2019,10,26,16,46,14.70
2019,10,26,16,47,14.70
2019,10,26,16,48,14.70
2019,10,26,16,49,14.70
2019,10,26,16,50,14.70
2019,10,26,16,51,14.70
2019,10,26,16,52,14.70
2019,10,26,16,53,14.70
2019,10,26,16,54,14.70
2019,10,26,16,55,14.70
2019,10,26,16,56,14.70
2019,10,26,16,57,14.70
2019,10,26,16,58,14.70
2019,10,26,16,59,14.70
2019,10,26,17,00,14.70
2019,10,26,17,01,14.70
2019,10,26,17,02,14.70
2019,10,26,17,03,14.60
2019,10,26,17,04,14.60
2019,10,26,17,05,14.60
2019,10,26,17,06,14.60
2019,10,26,17,07,14.60
2019,10,26,17,08,14.60
2019,10,26,17,09,14.60
2019,10,26,17,10,14.60
2019,10,26,17,11,14.50
2019,10,26,17,12,14.50
2019,10,26,17,13,14.50
2019,10,26,17,14,14.50
2019,10,26,17,15,14.50
2019,10,26,17,16,14.50
2019,10,26,17,17,14.50
2019,10,26,17,18,14.50
2019,10,26,17,19,14.50
2019,10,26,17,20,14.50
2019,10,26,17,21,14.50
2019,10,26,17,22,14.50
2019,10,26,17,23,14.40
2019,10,26,17,24,14.40
2019,10,26,17,25,14.40
2019,10,26,17,26,14.40
2019,10,26,17,27,14.40
2019,10,26,17,28,14.40
2019,10,26,17,29,14.30
2019,10,26,17,30,14.30
2019,10,26,17,31,14.30
2019,10,26,17,32,14.30
2019,10,26,17,33,14.30
2019,10,26,17,34,14.20
2019,10,26,17,35,14.20
2019,10,26,17,36,14.20
2019,10,26,17,37,14.20
2019,10,26,17,38,14.20
2019,10,26,17,39,14.10
2019,10,26,17,40,14.10
2019,10,26,17,41,14.10
2019,10,26,17,42,14.00
2019,10,26,17,43,14.00
2019,10,26,17,44,14.00
2019,10,26,17,45,13.90
2019,10,26,17,46,14.00
2019,10,26,17,47,14.00
2019,10,26,17,48,13.90
2019,10,26,17,49,13.90
2019,10,26,17,50,13.90
2019,10,26,17,51,13.90
2019,10,26,17,52,13.90